Weather in Grigiskes

Lithuania     54°40′14″N   25°05′38″E
temp.,
°C
wind,
m/s
gust,
m/s
humid.,
%
clouds,
%
prec.,
mm/h
press.,
hPa
HPBL,
m
6 august, fri
fri600:00+12ene41194100 0.0 1011396
03:00+12ene5129099 0.0 1009440
06:00+12ene61490100 0.0 1006535
09:00+12ne81697100 6.5 1004614
12:00+13ene71597100 4.8 1003791
15:00+14ene71395100 5.4 1002659
18:00+15ene61297100 0.1 1000476
21:00+15ene51098100 2.1 999502
7 august, sat
sat700:00+16se4798100 0.8 999440
03:00+14se4898100 0.8 999448
06:00+13sse4798100 0.1 1000485
09:00+13sse4898100 0.1 1001465
12:00+14sse3798100 0.0 1002478
15:00+15sw4798100 0.1 1003603
18:00+17wsw4792100 0.2 1005660
21:00+16wsw389781 0.3 1007381
8 august, sun
sun800:00+15wsw51097100 0.1 1009446
03:00+13sw379873 0.1 1011169
06:00+12ssw229683 0.0 101227
09:00+17s34857 0.0 1012271
12:00+22sse4661100 0.0 1012866
15:00+24se6860100 0.0 10111148
18:00+23se5117185 0.0 10101003
21:00+19sw5128994 1.1 1011465
9 august, mon
mon900:00+17sw511955 0.0 1013453
03:00+15sw499823 0.0 1015291
06:00+13sw38979 0.0 1015179
09:00+18wsw368657 0.0 1017366
12:00+19sw467476 0.1 1018621
15:00+23wsw57544 1.4 10181802
18:00+21wsw366496 0.2 1018768
21:00+17wsw22840 0.5 101913
10 august, tue
tue1000:00+14nnw11901 0.0 102010
03:00+14ese119182 0.0 102010
06:00+15ese1187100 0.0 102011
09:00+16se2387100 0.0 1020115
12:00+20s1270100 0.9 1019206
15:00+23sw014953 1.3 10181456
18:00+22ene115492 0.0 10171253
21:00+18sse2271100 0.1 101614